HORIZON (RS59S)

Last updated on Fri Dec 19 2025 00:03:12 GMT+0000 (Coordinated Universal Time)

1 61757U 24199Y 25352.60538036 .00051027 00000+0 77710-3 0 9998 2 61757 97.3215 223.7972 0006286 183.4536 176.6675 15.54329633109772
UTC large
Height (km)
Speed (km/s)
/
Latitude / Longitude
Inclination (degrees)
Orbital Period (minutes)
Azimuth
Elevation
Range (km)
Doppler Factor

Next 0 passes for location: London (51.5072 / 0.1276)

Sorry there are no passes over London.